Skip Page Navigation
NASA JPL Caltech
NASA Logo - Jet Propulsion Laboratory + View the NASA Portal
+ Center for Near-Earth Object Studies
JPL Home Earth Solar System Stars & Galaxies Technology
JPL Solar System Dynamics
BODIES ORBITS EPHEMERIDES TOOLS PHYSICAL DATA DISCOVERY FAQ SITE MAP
IMPORTANT: The SSD Announcement email list is now available. Major changes are coming in the near future, including possible hostname and/or URL changes. To be notified of such changes, subscribe to this email list.

Please visit this page for more details.


JPL Small-Body Database Browser
Search: [ help ]  
97658 (2000 FC22)
Classification: Main-belt Asteroid          SPK-ID: 2097658
Ephemeris | Orbit Diagram | Orbital Elements | Mission Design | Physical Parameters | Discovery Circumstances | Close-Approach Data ]

[ show orbit diagram ]
Orbital Elements at Epoch 2458600.5 (2019-Apr-27.0) TDB
Reference: JPL 21 (heliocentric ecliptic J2000)
 Element Value Uncertainty (1-sigma)   Units 
e .0669815893257282 4.1647e-08  
a 2.962726463230312 2.6591e-08 au
q 2.764278335985753 1.3277e-07 au
i 11.27959293632164 4.6332e-06 deg
node 138.4548468980354 2.4096e-05 deg
peri 337.4844507615879 4.5453e-05 deg
M 329.6022558436794 3.9402e-05 deg
tp 2458757.780404163313
(2019-Oct-01.28040416)
0.00020469 TDB
period 1862.669322026629
5.10
2.5077e-05
6.866e-08
d
yr
n .1932710201123146 2.602e-09 deg/d
Q 3.161174590474872 2.8372e-08 au
  Orbit Determination Parameters
   # obs. used (total)      675  
   data-arc span      7324 days (20.05 yr)  
   first obs. used      1998-12-22  
   last obs. used      2019-01-10  
   planetary ephem.      DE431  
   SB-pert. ephem.      SB431-N16  
   condition code      0  
   norm. resid. RMS      .59051  
   source      ORB  
   producer      Otto Matic  
   solution date      2019-Jul-13 11:38:04  

Additional Information
 Earth MOID = 1.78372 au 
 Jupiter MOID = 1.89665 au 
 T_jup = 3.233 
[ show covariance matrix ]

Ephemeris | Orbit Diagram | Orbital Elements | Mission Design | Physical Parameters | Discovery Circumstances | Close-Approach Data ]

Physical Parameter Table
Parameter Symbol Value Units Sigma Reference Notes
absolute magnitude H 14.8   n/a MPO432508  
diameter diameter 4.181 km 0.292 urn:nasa:pds:neowise_diameters_albedos::2.0[mainbelt] (http://adsabs.harvard.edu/abs/2011ApJ...741...68M)  
geometric albedo albedo 0.133   0.035 urn:nasa:pds:neowise_diameters_albedos::2.0[mainbelt] (http://adsabs.harvard.edu/abs/2011ApJ...741...68M)  

97658 (2000 FC22)          Discovered 2000-Mar-29 by LINEAR at Socorro
Reference: 20050224/Numbers.arcLast Updated: 2005-02-28

[ show close-approach data ]
Alternate Designations
 2000 FC22 = 2002 RP211 
Ephemeris | Orbit Diagram | Orbital Elements | Mission Design | Physical Parameters | Discovery Circumstances | Close-Approach Data ]
ABOUT SSD CREDITS/AWARDS PRIVACY/COPYRIGHT GLOSSARY LINKS
FirstGov 2019-Oct-19 05:57 UT
(server date/time)  
NASA Home Page
Site Manager:   Ryan S. Park
Webmaster  Alan B. Chamberlin